Weather History for Clarksville, TN

Change the Weather History Date:

Saturday, February 22, 2014

  Actual Average Record
Temperature  
Mean Temperature 51 °F -  
Max Temperature 66 °F - 73 °F (1992)
Min Temperature 36 °F - -1 °F (1978)
Degree Days  
Heating Degree Days 14    
Month to date heating degree days  
Since 1 July heating degree days  
Cooling Degree Days 0    
Month to date cooling degree days  
Growing Degree Days 1 (Base 50)    
Moisture  
Dew Point 21 °F    
Average Humidity 30    
Maximum Humidity 55    
Minimum Humidity 17    
Precipitation  
Precipitation 0.00 in - 2.05 in (1971)
Month to date precipitation  
Sea Level Pressure  
Sea Level Pressure 30.03 in    
Wind  
Wind Speed 6 mph (SSW)    
Max Wind Speed 12 mph    
Max Gust Speed 16 mph    
Visibility 10 miles    
Events      
T = Trace of Precipitation, MM = Missing Value Source: NWS Daily Summary

Daily Weather History Graph

Daily Weather History Graph

Search for Another Location

Airport:

Trip Planner

Search our weather history database for the weather conditions in past years. The results will help you decide how hot, cold, wet, or windy it might be!

Date:

Astronomy

Feb. 22, 2014 Rise Set
Actual Time 6:29 AM CST 5:37 PM CST
Civil Twilight 6:03 AM CST 6:03 PM CST
Nautical Twilight 5:33 AM CST 6:33 PM CST
Astronomical Twilight 5:03 AM CST 7:03 PM CST
Moon 12:20 AM CST (2/22) 10:52 AM CST (2/22)
Length of Visible Light 12h 00m
Length of Day
11h 08m
Waning Gibbous, 50% of the Moon is Illuminated
Feb 22
Waning Gibbous
Mar 1
New
Mar 8
First Quarter
Mar 16
Full
Mar 23
Last Quarter

Hourly Weather History & Observations

Time (CST) Temp. Windchill Dew Point Humidity Pressure Visibility Wind Dir Wind Speed Gust Speed Precip Events Conditions
12:52 AM 41.0 °F 38.0 °F 18.0 °F 40% 30.09 in 10.0 mi SSW 4.6 mph - N/A   Clear
1:52 AM 39.9 °F 35.1 °F 19.9 °F 45% 30.08 in 10.0 mi SSW 6.9 mph - N/A   Clear
2:52 AM 42.1 °F 37.7 °F 19.9 °F 41% 30.07 in 10.0 mi SSW 6.9 mph - N/A   Clear
3:52 AM 42.1 °F 37.1 °F 19.9 °F 41% 30.08 in 10.0 mi SSW 8.1 mph - N/A   Clear
4:52 AM 41.0 °F 36.4 °F 19.9 °F 43% 30.09 in 10.0 mi SSW 6.9 mph - N/A   Clear
5:52 AM 42.1 °F 39.2 °F 19.0 °F 40% 30.09 in 10.0 mi SSW 4.6 mph - N/A   Clear
6:52 AM 36.0 °F - 21.0 °F 55% 30.10 in 10.0 mi Calm Calm - N/A   Clear
7:52 AM 44.1 °F 42.5 °F 25.0 °F 47% 30.12 in 10.0 mi South 3.5 mph - N/A   Clear
8:52 AM 50.0 °F - 23.0 °F 35% 30.12 in 10.0 mi SSW 8.1 mph - N/A   Clear
9:52 AM 55.9 °F - 24.1 °F 29% 30.12 in 10.0 mi SW 6.9 mph - N/A   Clear
10:52 AM 60.1 °F - 23.0 °F 24% 30.09 in 10.0 mi WSW 4.6 mph - N/A   Clear
11:52 AM 62.1 °F - 21.9 °F 21% 30.06 in 10.0 mi SW 6.9 mph - N/A   Clear
12:52 PM 64.9 °F - 23.0 °F 20% 30.02 in 10.0 mi SSW 10.4 mph 16.1 mph N/A   Clear
1:52 PM 64.9 °F - 19.9 °F 18% 29.98 in 10.0 mi SSE 9.2 mph - N/A   Clear
2:52 PM 66.0 °F - 19.9 °F 17% 29.96 in 10.0 mi South 11.5 mph - N/A   Clear
3:52 PM 64.9 °F - 19.9 °F 18% 29.94 in 10.0 mi SSW 10.4 mph - N/A   Clear
4:52 PM 64.9 °F - 19.9 °F 18% 29.93 in 10.0 mi SSW 5.8 mph - N/A   Clear
5:52 PM 63.0 °F - 17.1 °F 17% 29.93 in 10.0 mi WSW 3.5 mph - N/A   Clear
6:52 PM 59.0 °F - 19.0 °F 21% 29.95 in 10.0 mi WSW 4.6 mph - N/A   Clear
7:52 PM 54.0 °F - 21.0 °F 28% 29.95 in 10.0 mi South 3.5 mph - N/A   Clear
8:52 PM 55.0 °F - 18.0 °F 23% 29.96 in 10.0 mi South 4.6 mph - N/A   Clear
9:52 PM 52.0 °F - 19.9 °F 28% 29.96 in 10.0 mi South 4.6 mph - N/A   Clear
10:52 PM 52.0 °F - 19.9 °F 28% 29.97 in 10.0 mi SSW 4.6 mph - N/A   Clear
11:52 PM 51.1 °F - 21.0 °F 31% 29.98 in 10.0 mi SSW 5.8 mph - N/A   Clear